OneWeb SL0688

operational
NORAD ID: 61596 Int'l Des: 2024-188 Owner: ONEWEBE Country: UK Constellation: oneweb
LEOCIRCULARPOLARONEWEB_TYPE

About OneWeb SL0688

Description loading...

Live Position

Loading 3D Globe...

Upcoming Passes

Altitude History

Altitude vs Time

uPlot chart will show altitude changes over time

Two-Line Element Set

1 61596U 24188C 26033.47276502 .00000003 00000-0 -25997-4 0 9997
2 61596 87.9080 32.6543 0002817 66.7608 293.3819 13.17648047 68151
Epoch: Feb 2, 2026 • Age: 17 hours

Current Status

Altitude 1205.2 km
Velocity 7.26 km/s
Sub-Earth Point 80.51°N, 150.63°W
Launch Date Oct 20, 2024
Age 1.2 years
Type internet

Technical Details

Classification Payload
Mass 148.00 kg
Dry Mass 140.00 kg
Total Mass 148.00 kg
Length 1.30 m
Diameter 1.00 m
Span 5.00 m
Shape Trapezoid+2 pan
Manufacturer ONEWUS
Bus Type ARROW
Phase Status In Orbit
Owner/State ONEWEBE/UK

Large Constellations

Loading constellations...